RH
28 24 25 29 29 27 28 36 36 32 28 28 27 27 33 42 48 56 56 30 26 25 26 26 27 25 22 20 22 27 27 24
32 32 32 29 30 31 30 28 34 32 31 30 29 31 34 39 43 50 60 67 54 37 30 30 30 31 28 26 24 26 27 26
44 42 38 37 31 30 32 33 31 34 36 34 33 33 37 39 40 46 60 67 73 53 45 39 36 36 36 30 24 27 31 31
49 49 47 46 46 44 38 32 35 38 38 37 42 43 44 47 46 49 54 61 76 83 62 47 45 36 37 38 34 25 29 36
48 45 43 45 46 44 47 44 41 39 38 37 37 38 42 48 55 61 64 66 72 79 90 82 77 64 55 44 44 37 24 31
35 34 34 39 43 51 55 53 52 51 50 48 49 50 51 51 56 60 64 69 64 60 76 79 100 98 80 87 63 51 38 21
34 36 36 35 35 39 47 49 48 48 47 47 45 42 42 42 43 45 53 65 68 69 71 68 61 79 79 82 96 74 58 40
42 42 40 36 38 37 37 39 41 39 38 37 34 34 34 33 34 36 40 43 42 50 53 69 70 61 70 71 90 97 82 60
48 44 31 26 24 26 31 30 29 31 34 36 37 36 35 35 35 35 35 36 36 36 35 38 48 68 86 89 78 98 100 92
52 50 32 30 23 19 18 16 16 17 18 18 22 24 24 24 23 22 22 26 31 35 37 37 35 47 60 88 68 72 90 97
41 41 32 32 31 31 30 30 28 23 16 14 14 15 17 19 22 24 24 23 23 22 27 29 32 37 34 50 84 71 70 81
33 32 29 25 20 18 19 21 24 26 28 23 15 12 13 14 12 12 13 14 17 20 19 22 22 25 33 34 38 59 61 65
19 19 18 18 18 19 22 26 29 28 25 24 22 18 15 13 14 16 14 12 11 10 14 12 13 14 21 28 33 92 85 55
20 22 23 23 20 20 26 33 33 32 29 29 29 29 30 31 30 29 26 25 22 20 19 14 12 15 10 14 22 35 59 92
27 27 28 26 23 23 24 28 32 38 42 39 35 31 29 27 26 24 22 22 20 20 20 20 16 14 17 11 10 19 34 37
35 34 32 28 28 27 31 34 33 28 23 22 21 21 20 19 18 17 16 18 16 16 21 24 20 16 13 15 11 9 21 26
37 32 31 34 34 31 25 20 19 22 25 27 27 27 26 23 22 20 20 20 21 20 21 25 29 27 18 11 18 15 11 17
42 40 37 34 32 27 23 29 35 34 28 28 26 24 20 14 10 9 8 8 8 11 13 18 21 24 22 21 12 16 18 15
40 40 42 38 32 32 35 38 36 34 30 22 14 8 5 4 3 3 3 3 3 3 3 4 8 13 20 16 18 15 14 19
48 41 35 36 43 41 44 44 42 20 11 6 5 4 3 3 4 18 25 30 39 32 26 17 6 3 5 13 10 14 16 14
Wind_Speed
26 27 29 30 29 28 29 29 29 28 28 26 26 26 27 26 26 26 27 31 33 32 29 28 28 28 27 26 26 26 26 25
25 27 27 28 30 29 28 29 30 31 32 31 31 30 30 30 30 30 26 29 30 33 32 30 30 30 30 27 26 25 25 24
24 25 28 29 32 33 32 32 33 34 34 34 35 35 35 35 35 35 29 29 34 31 33 32 31 31 32 31 27 25 24 23
27 27 26 27 30 33 34 35 35 36 37 36 37 37 37 35 36 37 38 38 35 35 34 32 32 33 34 34 31 28 25 23
27 27 28 30 31 31 32 34 33 35 36 37 37 38 38 39 39 41 42 41 38 36 36 40 43 37 35 37 36 32 28 26
31 33 34 35 34 34 34 36 37 38 39 40 40 41 42 43 42 41 41 40 40 38 39 40 41 41 34 35 38 36 33 30
31 31 32 32 35 36 35 36 39 41 42 43 42 42 42 42 41 40 40 40 41 42 43 42 43 44 41 38 36 37 37 33
35 38 37 36 35 36 39 40 41 41 42 44 46 46 46 46 46 46 46 46 46 47 47 46 45 45 43 42 39 39 41 40
38 39 39 41 41 41 42 43 44 46 47 48 49 50 51 50 50 51 51 49 48 48 48 50 49 50 47 45 42 41 42 43
41 40 41 43 42 43 46 47 48 49 50 51 51 50 50 51 52 53 52 53 51 51 51 51 52 52 54 50 44 47 45 49
41 42 47 49 51 52 53 54 55 55 56 57 57 58 57 56 55 56 57 57 57 57 55 55 55 56 55 54 53 50 49 45
43 46 51 53 55 56 57 58 60 61 60 61 63 64 62 60 60 61 59 58 60 62 63 61 60 60 59 58 57 55 54 53
46 48 51 54 56 58 60 60 60 62 63 64 65 67 68 69 69 67 65 66 65 61 63 66 66 66 65 63 60 55 62 59
52 54 57 60 61 61 59 59 59 60 62 65 67 70 72 74 74 72 73 73 72 71 68 64 67 70 69 69 67 63 61 52
59 62 64 63 63 63 65 66 67 68 69 70 71 73 74 76 78 79 79 80 79 78 78 75 70 69 74 74 73 73 68 67
66 69 70 68 67 67 69 70 72 72 71 72 72 73 75 77 78 78 78 77 79 80 79 79 78 74 74 78 79 78 75 72
72 72 69 69 69 70 71 69 67 64 64 64 66 69 73 75 75 76 77 77 76 75 76 75 76 79 77 78 83 82 83 80
66 66 67 66 65 65 64 63 61 62 65 67 66 66 67 71 74 76 79 79 79 79 76 74 76 77 76 79 83 88 86 86
63 63 62 63 63 66 66 63 65 65 62 62 65 68 71 75 78 79 78 77 76 81 83 83 79 78 82 80 81 86 91 89
62 63 64 65 67 67 64 65 63 60 62 64 66 69 72 72 66 56 51 49 53 53 56 60 69 81 83 86 83 83 91 93
Wind_Direction
286 283 282 281 281 282 283 284 285 286 287 288 289 290 292 292 291 290 290 293 294 292 291 291 292 292 292 292 291 293 293 294
280 279 276 278 281 279 275 276 280 282 283 286 286 285 286 288 289 288 294 285 288 291 289 289 291 293 294 294 294 292 290 289
280 279 276 275 276 278 277 276 276 278 281 284 285 285 286 287 287 286 290 292 281 281 289 290 292 295 297 297 295 291 288 287
278 277 278 278 278 277 276 277 281 281 281 282 284 284 285 285 287 287 291 291 291 281 277 285 290 293 295 295 295 290 285 283
282 283 284 282 279 278 281 282 281 281 282 283 283 283 284 284 284 286 288 288 288 288 289 286 283 282 287 292 292 292 287 281
289 285 286 287 285 282 281 281 281 279 279 279 279 279 281 283 284 284 286 287 287 287 286 288 287 289 282 282 286 289 288 284
293 293 292 289 287 283 281 280 282 283 282 281 282 282 282 281 280 280 281 282 284 284 282 283 282 283 286 286 284 279 282 283
294 296 297 295 291 286 284 283 281 280 280 282 283 283 282 281 280 278 277 277 277 279 281 281 281 276 279 285 281 280 277 280
292 293 296 299 296 293 290 289 288 286 283 281 281 281 281 280 279 279 278 274 273 274 273 276 277 277 277 277 277 275 274 274
289 287 287 294 292 290 289 289 287 285 283 282 279 277 277 278 279 278 278 278 274 270 270 269 271 273 276 273 271 272 274 270
282 275 282 290 292 292 291 290 289 288 284 280 278 278 276 274 274 275 276 276 276 275 272 269 269 268 268 269 271 271 273 272
279 279 284 288 289 289 289 289 287 286 285 284 283 281 280 279 279 279 276 273 274 275 274 272 269 267 266 263 265 268 268 269
290 289 289 290 291 291 291 290 289 287 286 284 281 279 279 279 280 280 279 279 276 270 267 271 272 269 267 264 260 255 266 266
290 292 293 295 294 291 289 287 284 283 282 282 282 283 283 283 281 280 278 277 276 275 274 268 266 267 268 266 263 257 253 266
291 295 297 295 292 290 288 288 287 288 288 288 287 287 286 284 284 283 282 279 278 276 275 271 269 261 262 266 263 262 254 252
297 297 295 291 289 288 288 289 290 290 289 289 289 289 288 288 287 286 282 279 275 272 268 268 267 263 257 257 262 260 259 255
295 293 288 289 289 291 293 293 292 292 292 292 291 291 291 290 290 287 285 282 280 275 271 268 264 262 255 251 252 256 258 256
287 288 289 291 294 296 295 296 295 296 297 297 297 297 295 293 292 290 288 285 281 276 272 267 263 260 256 250 246 249 252 255
289 291 294 297 297 298 300 298 299 301 301 300 299 299 300 297 296 295 293 290 286 281 277 273 266 260 256 253 249 244 246 248
295 296 296 296 298 299 298 300 302 302 302 302 304 303 302 302 304 301 298 293 291 285 280 277 272 264 257 253 251 247 244 243